www.pogodaiklimat.ru

Погода и климат >> Архив погоды >> Бразилия >> Gilbues


ПОГОДА в Gilbues

  • Прогноз погоды в Gilbues
  • Монитор погоды в Gilbues
  • Климат города

АРХИВ ПОГОДЫ в Gilbues

Время (UTC), дата Ветер
(напр.,м/с)
 
Видим.   Явления Облачность Т
(С)
Тd
(С)
f
(%)
Тe
(С)
Тes
(С)
Комфортность P
(гПа)
Po
(гПа)
Тmin
(С)
Tmax
(С)
R
(мм)
R24
(мм)
S
(см)
16 17.09 СВ 2
{5}
н/о н/о +43.9 +16.8 21 +46 +46 опасность
перегрева
1006.4 961.3
17 17.09 СЗ 2
{5}
н/о н/о +43.1 +14.7 19 +44 +44 опасность
перегрева
1005.3 960.2
18 17.09
{4}
н/о н/о +43.6 +13.3 17 1004.4 959.4
19 17.09 СЗ 1
{3}
н/о н/о +43.1 +13.9 18 +43 +43 опасность
перегрева
1004.5 959.4
20 17.09 С 1
{2}
н/о н/о +43.2 +13.1 17 +43 +43 опасность
перегрева
1004.6 959.5
21 17.09 СЗ 1
{2}
н/о н/о +41.5 +14.4 20 +42 +42 опасность
перегрева
1005.2 959.8
22 17.09 З 1
{2}
н/о н/о +38.6 +15.2 25 +40 +40 очень
душно
1006.0 960.2
23 17.09 штиль 0
{1}
н/о н/о +35.3 +15.1 30 +37 +37 очень
душно
1007.1 960.8
00 18.09 штиль 0
{1}
н/о н/о +34.6 +15.4 32 +37 +37 очень
душно
1008.1 961.6
01 18.09 штиль 0
{1}
н/о н/о +32.1 +14.1 34 +34 +34 душно 1008.9 962.0
02 18.09 В 1
{1}
н/о н/о +30.8 +14.6 37 +33 +33 душно 1009.7 962.6
03 18.09 В 1
{1}
н/о н/о +30.0 +15.2 41 +33 +33 душно 1009.3 962.1
04 18.09 Ю 1
{3}
н/о н/о +30.1 +15.2 40 +32 +32 жарко 1008.7 961.5
05 18.09 В 1
{2}
н/о н/о +30.3 +17.4 46 +34 +34 очень
душно
1008.4 961.3
06 18.09 В 1
{2}
н/о н/о +29.0 +16.2 46 +32 +32 душно 1009.1 961.7
07 18.09 В 1
{2}
н/о н/о +30.2 +16.8 45 +34 +34 очень
душно
1009.1 961.9
08 18.09 В 1
{2}
н/о н/о +27.9 +16.7 51 +32 +32 душно 1010.3 962.7
09 18.09 В 1
{2}
н/о н/о +28.3 +16.6 49 +32 +32 душно 1011.1 963.5
10 18.09 В 1
{2}
н/о н/о +32.2 +16.2 38 +35 +35 очень
душно
1011.2 964.2
11 18.09 В 2
{3}
н/о н/о +37.6 +16.8 29 +40 +40 очень
душно
1011.0 964.8
12 18.09 В 2
{4}
н/о н/о +39.3 +16.2 26 +41 +41 опасность
перегрева
1011.4 965.4
13 18.09 В 2
{5}
н/о н/о +42.3 +17.9 25 +46 +46 опасность
перегрева
1010.7 965.2
14 18.09 В 2
{6}
н/о н/о +43.7 +14.9 19 +45 +45 опасность
перегрева
1009.3 964.1
15 18.09 В 1
{6}
н/о н/о +43.8 +14.4 18 +44 +44 опасность
перегрева
1008.1 962.9
16 18.09 СВ 2
{5}
н/о н/о +43.8 +13.6 17 +44 +44 опасность
перегрева
1006.5 961.4
17 18.09 В 2
{4}
н/о н/о +44.5 +13.9 17 +45 +45 опасность
перегрева
1005.1 960.2
18 18.09 В 2
{5}
н/о н/о +44.1 +12.6 16 +44 +44 опасность
перегрева
1004.4 959.4
19 18.09 СВ 2
{4}
н/о н/о +44.1 +11.5 15 +43 +43 опасность
перегрева
1003.7 958.8
20 18.09 В 1
{4}
н/о н/о +43.3 +11.9 16 +43 +43 опасность
перегрева
1004.0 958.9
21 18.09 СВ 1
{3}
н/о н/о +41.4 +13.0 19 +41 +41 опасность
перегрева
1004.5 959.2
22 18.09 В 1
{2}
н/о н/о +37.4 +12.4 22 +37 +37 очень
жарко
1005.6 959.6
23 18.09 ЮВ 1
{1}
н/о н/о +35.4 +12.2 25 +35 +35 очень
жарко
1006.6 960.3
00 19.09 В 1
{2}
н/о н/о +34.5 +13.1 28 +35 +35 очень
жарко
1007.4 960.9
01 19.09 В 1
{2}
н/о н/о +34.1 +13.0 28 +35 +35 очень
жарко
1008.1 961.5
02 19.09 В 2
{3}
н/о н/о +34.8 +11.5 24 +34 +34 очень
жарко
1008.1 961.6
03 19.09 В 1
{3}
н/о н/о +33.4 +11.4 26 +33 +33 жарко 1008.0 961.3
04 19.09 В 1
{3}
н/о н/о +33.1 +10.1 24 +32 +32 жарко 1007.7 961.0
05 19.09 В 2
{3}
н/о н/о +30.8 +10.4 28 +31 +31 жарко 1008.2 961.1
06 19.09 В 2
{3}
н/о н/о +30.2 +9.5 28 +30 +30 жарко 1008.3 961.1
07 19.09 В 2
{3}
н/о н/о +29.5 +9.8 29 +29 +29 жарко 1009.0 961.7
08 19.09 СВ 1
{3}
н/о н/о +29.9 +11.1 31 +30 +30 жарко 1009.9 962.6
09 19.09 ЮВ 1
{1}
н/о н/о +28.9 +11.9 35 +30 +30 жарко 1011.1 963.6
10 19.09 В 1
{2}
н/о н/о +32.9 +13.0 30 +34 +34 очень
жарко
1011.1 964.2
11 19.09 В 2
{3}
н/о н/о +36.1 +16.3 31 +38 +38 очень
душно
1011.6 965.2
12 19.09 В 2
{4}
н/о н/о +39.4 +19.3 31 +44 +44 опасность
перегрева
1011.9 965.9
13 19.09 СВ 3
{5}
н/о н/о +39.6 +17.9 28 +43 +43 опасность
перегрева
1012.0 966.1
14 19.09 СВ 2
{5}
н/о н/о +42.7 +19.0 26 +47 +47 опасность
перегрева
1010.6 965.2
15 19.09 СВ 2
{4}
н/о н/о +43.6 +17.3 22 +46 +46 опасность
перегрева
1009.4 964.1
16 19.09 В 1
{6}
н/о н/о +44.3 +15.5 19 +45 +45 опасность
перегрева
1007.6 962.5
17 19.09 В 2
{4}
н/о н/о +44.8 +13.6 16 +45 +45 опасность
перегрева
1005.9 961.0
18 19.09 В 1
{5}
н/о н/о +44.4 +12.6 16 +44 +44 опасность
перегрева
1005.2 960.2
19 19.09 В 2
{5}
н/о н/о +44.3 +11.6 15 +44 +44 опасность
перегрева
1005.0 960.0
20 19.09 ЮВ 2
{4}
н/о н/о +42.9 +11.2 15 +42 +42 опасность
перегрева
1005.6 960.4
21 19.09 В 1
{3}
н/о н/о +41.0 +9.8 16 +40 +40 очень
жарко
1006.2 960.7
22 19.09 В 1
{1}
н/о н/о +36.6 +9.6 19 +35 +35 очень
жарко
1007.5 961.3
23 19.09 В 1
{1}
н/о н/о +34.7 +10.0 22 +34 +34 очень
жарко
1008.5 962.0
00 20.09 В 1
{2}
н/о н/о +35.6 +11.7 24 +35 +35 очень
жарко
1008.8 962.4
01 20.09 В 1
{2}
н/о н/о +35.4 +12.8 26 +36 +36 очень
жарко
1009.4 963.0
02 20.09 В 2
{3}
н/о н/о +35.5 +13.5 27 +36 +36 очень
жарко
1009.8 963.4
03 20.09 В 2
{2}
н/о н/о +33.0 +13.3 30 +34 +34 очень
жарко
1009.8 963.0
04 20.09 В 2
{2}
н/о н/о +32.9 +12.7 29 +33 +33 жарко 1009.5 962.7
05 20.09 СВ 1
{2}
н/о н/о +31.6 +12.8 32 +32 +32 жарко 1009.3 962.3
06 20.09 В 2
{2}
н/о н/о +30.6 +12.5 33 +31 +31 жарко 1009.9 962.7
07 20.09 В 1
{2}
н/о н/о +30.2 +12.9 35 +31 +31 жарко 1010.5 963.2
08 20.09 В 1
{2}
н/о н/о +29.5 +13.5 37 +31 +31 жарко 1011.4 964.0
09 20.09 штиль 0
{2}
н/о н/о +30.0 +14.6 39 +32 +32 жарко 1012.4 965.0
10 20.09 СВ 1
{1}
н/о н/о +32.2 +15.9 38 +35 +35 очень
душно
1012.9 965.8
11 20.09 В 3
{5}
н/о н/о +35.0 +19.0 39 +40 +40 очень
душно
1013.0 966.3
12 20.09 В 2
{5}
н/о н/о +37.3 +18.8 34 +42 +42 опасность
перегрева
1013.4 967.1
13 20.09 СВ 2
{3}
н/о н/о +38.5 +18.6 31 +42 +42 опасность
перегрева
1012.9 966.8
14 20.09 СВ 2
{4}
н/о н/о +39.3 +18.6 30 +43 +43 опасность
перегрева
1011.7 965.7
15 20.09 В 1
{4}
н/о н/о +41.5 +18.9 27 +45 +45 опасность
перегрева
1010.1 964.5
16 20.09 В 2
{4}
н/о н/о +41.9 +17.2 24 +44 +44 опасность
перегрева
1008.2 962.8
17 20.09 ЮВ 2
{4}
н/о н/о +42.8 +16.2 21 +44 +44 опасность
перегрева
1006.6 961.4
18 20.09 В 2
{4}
н/о н/о +43.7 +11.6 15 +43 +43 опасность
перегрева
1005.8 960.7
19 20.09 СВ 1
{5}
н/о н/о +43.5 +9.7 14 +42 +42 опасность
перегрева
1005.7 960.6
20 20.09 ЮВ 2
{5}
н/о н/о +42.1 +8.5 13 +40 +40 очень
жарко
1006.2 960.9
21 20.09 ЮВ 2
{4}
н/о н/о +40.7 +8.4 14 +39 +39 очень
жарко
1006.9 961.3
22 20.09 ЮВ 1
{3}
н/о н/о +38.5 +10.1 18 +37 +37 очень
жарко
1007.7 961.8
23 20.09 В 1
{2}
н/о н/о +36.5 +9.8 20 +35 +35 очень
жарко
1008.6 962.4
01 21.09 В 1
{2}
н/о н/о +33.4 +10.6 25 +33 +33 жарко 1010.3 963.5
02 21.09 В 1
{2}
н/о н/о +30.6 +9.8 28 +30 +30 жарко 1010.7 963.5
03 21.09 В 2
{2}
н/о н/о +30.7 +9.7 27 +30 +30 жарко 1010.3 963.1
04 21.09 В 1
{3}
н/о н/о +30.7 +9.8 27 +30 +30 жарко 1009.7 962.6
05 21.09 В 2
{3}
н/о н/о +29.1 +10.4 31 +29 +29 жарко 1010.1 962.7
06 21.09 В 1
{2}
н/о н/о +29.2 +11.1 33 +30 +30 жарко 1010.1 962.7
07 21.09 В 2
{2}
н/о н/о +30.5 +14.5 38 +33 +33 душно 1010.3 963.1
08 21.09 В 2
{4}
н/о н/о +32.1 +16.8 40 +35 +35 очень
душно
1010.7 963.7
09 21.09 В 2
{4}
н/о н/о +31.4 +17.6 44 +36 +36 очень
душно
1011.3 964.2
10 21.09 В 2
{4}
н/о н/о +33.2 +17.8 40 +37 +37 очень
душно
1012.3 965.4
11 21.09 В 4
{6}
н/о н/о +34.5 +18.1 38 +39 +39 очень
душно
1012.4 965.7
12 21.09 В 3
{6}
н/о н/о +36.5 +18.1 34 +40 +40 очень
душно
1012.5 966.1
13 21.09 В 3
{5}
н/о н/о +38.1 +17.8 31 +42 +42 опасность
перегрева
1012.2 966.0
14 21.09 В 3
{6}
н/о н/о +40.2 +17.9 27 +43 +43 опасность
перегрева
1011.1 965.3
15 21.09 В 3
{5}
н/о н/о +41.8 +16.5 23 +44 +44 опасность
перегрева
1009.7 964.2
16 21.09 В 2
{5}
н/о н/о +41.9 +14.5 20 +42 +42 опасность
перегрева
1008.2 962.8
17 21.09 СВ 2
{4}
н/о н/о +42.2 +13.4 18 +42 +42 опасность
перегрева
1006.9 961.6
18 21.09 СВ 2
{4}
н/о н/о +42.3 +11.9 17 +42 +42 опасность
перегрева
1006.0 960.7
19 21.09 СВ 1
{4}
н/о н/о +41.3 +12.7 19 +41 +41 опасность
перегрева
1005.8 960.4
20 21.09 ЮВ 1
{3}
н/о н/о +41.9 +11.3 16 +41 +41 опасность
перегрева
1005.9 960.6
21 21.09 В 1
{4}
н/о н/о +39.7 +11.5 19 +39 +39 очень
жарко
1006.5 960.8
22 21.09 В 1
{1}
н/о н/о +36.8 +10.8 21 +36 +36 очень
жарко
1007.4 961.3
23 21.09 В 1
{2}
н/о н/о +35.9 +11.2 22 +35 +35 очень
жарко
1008.5 962.2
00 22.09 В 1
{2}
н/о н/о +35.7 +11.4 23 +35 +35 очень
жарко
1009.0 962.6
01 22.09 В 1
{2}
н/о н/о +33.4 +11.7 27 +33 +33 жарко 1009.6 962.9
02 22.09 В 1
{2}
н/о н/о +32.2 +11.5 28 +32 +32 жарко 1009.9 963.0
03 22.09 В 2
{3}
н/о н/о +33.3 +12.0 27 +33 +33 жарко 1009.2 962.5
04 22.09 В 2
{3}
н/о н/о +31.7 +11.9 30 +32 +32 жарко 1009.0 962.0
05 22.09 СВ 1
{2}
н/о н/о +29.3 +11.6 33 +30 +30 жарко 1008.6 961.3
06 22.09 В 2
{2}
н/о н/о +30.7 +13.5 35 +32 +32 жарко 1008.5 961.4
07 22.09 В 1
{2}
н/о н/о +29.9 +13.8 37 +31 +31 жарко 1008.6 961.4
08 22.09 В 2
{3}
н/о н/о +30.2 +13.4 36 +32 +32 жарко 1009.0 961.8
09 22.09 В 2
{3}
н/о н/о +29.7 +13.6 37 +31 +31 жарко 1009.9 962.6
10 22.09 В 2
{3}
н/о н/о +32.9 +14.1 32 +34 +34 очень
жарко
1010.2 963.4
11 22.09 В 2
{4}
н/о н/о +34.7 +15.0 31 +36 +36 душно 1010.6 964.0
12 22.09 В 3
{5}
н/о н/о +36.6 +15.0 28 +38 +38 очень
душно
1010.8 964.5
13 22.09 В 2
{5}
н/о н/о +39.1 +14.4 23 +40 +40 очень
душно
1009.9 964.0
14 22.09 В 1
{5}
н/о н/о +41.8 +12.9 18 +41 +41 опасность
перегрева
1009.0 963.5
15 22.09 В 2
{4}
н/о н/о +42.7 +8.3 13 +41 +41 опасность
перегрева
1007.6 962.3
16 22.09 ЮВ 2
{5}
н/о н/о +42.8 +8.6 13 +41 +41 опасность
перегрева
1006.1 960.9
17 22.09 В 2
{5}
н/о н/о +43.9 +7.2 11 +41 +41 опасность
перегрева
1004.6 959.6
18 22.09 ЮВ 2
{4}
н/о н/о +43.8 +6.3 11 +41 +41 опасность
перегрева
1003.8 958.8
19 22.09 ЮВ 2
{4}
н/о н/о +42.7 +6.1 11 +40 +40 очень
жарко
1003.6 958.5
20 22.09 В 1
{4}
н/о н/о +41.6 +6.1 12 +39 +39 очень
жарко
1004.1 958.8
21 22.09 В 1
{4}
н/о н/о +39.4 +5.8 13 +37 +37 очень
жарко
1004.7 959.1
22 22.09 В 1
{2}
н/о н/о +35.7 +4.8 15 +33 +33 жарко 1005.8 959.6
23 22.09 В 1
{1}
н/о н/о +33.7 +6.0 18 +32 +32 жарко 1006.7 960.1
00 23.09 В 1
{2}
н/о н/о +32.9 +5.3 18 +31 +31 жарко 1007.5 960.8
01 23.09 В 1
{2}
н/о н/о +32.6 +6.4 20 +31 +31 жарко 1008.1 961.3
02 23.09 В 1
{2}
н/о н/о +31.5 +6.5 21 +30 +30 жарко 1008.6 961.6
03 23.09 В 1
{2}
н/о н/о +31.3 +6.9 22 +30 +30 жарко 1008.2 961.2
04 23.09 В 1
{2}
н/о н/о +31.6 +6.5 21 +30 +30 жарко 1007.3 960.4
05 23.09 СЗ 1
{2}
н/о н/о +30.1 +6.9 23 +29 +29 жарко 1007.1 960.0
06 23.09 В 1
{2}
н/о н/о +30.0 +9.0 27 +29 +29 жарко 1007.2 960.1
07 23.09 В 2
{3}
н/о н/о +30.6 +9.8 28 +30 +30 жарко 1007.5 960.4
08 23.09 В 2
{2}
н/о н/о +29.8 +10.4 30 +30 +30 жарко 1008.0 960.8
09 23.09 ЮВ 1
{2}
н/о н/о +29.3 +9.9 30 +29 +29 жарко 1009.2 961.9
10 23.09 З 1
{1}
н/о н/о +32.5 +10.3 26 +32 +32 жарко 1009.7 962.8
11 23.09 В 2
{3}
н/о н/о +36.4 +13.5 25 +37 +37 очень
жарко
1009.8 963.5
12 23.09 В 2
{4}
н/о н/о +37.0 +14.5 26 +38 +38 душно 1010.0 963.8
13 23.09 СВ 2
{5}
н/о н/о +39.2 +14.8 24 +40 +40 очень
душно
1010.2 964.3
14 23.09 СВ 2
{5}
н/о н/о +42.2 +15.7 21 +43 +43 опасность
перегрева
1009.1 963.7
15 23.09 СВ 2
{4}
н/о н/о +42.8 +15.3 20 +44 +44 опасность
перегрева
1007.7 962.4
16 23.09 В 2
{5}
н/о н/о +42.2 +13.8 19 +42 +42 опасность
перегрева
1006.4 961.1
17 23.09 С 1
{5}
н/о н/о +42.2 +13.2 18 +42 +42 опасность
перегрева
1005.4 960.1
19 23.09 Ю 1
{3}
н/о н/о +42.7 +12.2 17 +42 +42 опасность
перегрева
1004.4 959.2
20 23.09 В 2
{3}
н/о н/о +42.3 +12.2 17 +42 +42 опасность
перегрева
1004.5 959.3
21 23.09 СВ 1
{3}
н/о н/о +40.2 +13.1 20 +40 +40 очень
жарко
1005.2 959.7
22 23.09 штиль 0
{1}
н/о н/о +37.2 +12.4 23 +37 +37 очень
жарко
1006.3 960.3
23 23.09 Ю 1
{1}
н/о н/о +36.8 +12.5 23 +37 +37 очень
жарко
1007.1 961.0
00 24.09 ЮЗ 1
{1}
н/о н/о +37.0 +12.7 23 +37 +37 очень
жарко
1007.8 961.7
01 24.09 В 1
{2}
н/о н/о +36.8 +12.8 24 +37 +37 очень
жарко
1008.7 962.5
02 24.09 СВ 1
{1}
н/о н/о +36.1 +13.5 26 +37 +37 душно 1009.1 962.8
03 24.09 СВ 1
{3}
н/о н/о +36.5 +12.0 23 +36 +36 очень
жарко
1008.8 962.6
04 24.09 В 1
{2}
н/о н/о +35.9 +11.7 23 +35 +35 очень
жарко
1008.7 962.4
05 24.09 В 1
{2}
н/о н/о +34.7 +12.4 26 +35 +35 очень
жарко
1009.0 962.5
06 24.09 В 1
{2}
н/о н/о +33.6 +12.2 27 +34 +34 очень
жарко
1008.9 962.2
07 24.09 ЮВ 1
{2}
н/о н/о +33.1 +12.8 29 +34 +34 очень
жарко
1009.3 962.5
08 24.09 В 1
{2}
н/о н/о +31.9 +14.0 34 +33 +33 жарко 1010.0 963.0
09 24.09 В 2
{4}
н/о н/о +32.5 +16.4 38 +35 +35 душно 1010.6 963.7
10 24.09 В 2
{4}
н/о н/о +32.9 +16.7 38 +36 +36 очень
душно
1011.4 964.5
11 24.09 В 2
{5}
н/о н/о +33.5 +16.8 37 +37 +37 очень
душно
1011.9 965.1
14 24.09 В 2
{4}
н/о н/о +38.4 +16.1 27 +40 +40 очень
душно
1011.0 964.9

 

Местоположение метеостанции Gilbues (Бразилия): широта -9.87 долгота -45.35 высота над уровнем моря 427 м.

В архиве по умолчанию представлена погода в Gilbues за последнюю неделю. Архивные данные за месяц целиком и за предыдущие месяцы, начиная с января 2011 года, Вы можете получить, выбрав интересующий диапазон дат из раскрывающегося списка и нажав кнопку "Ввод!".


*Определитесь, кто Вы:
робот инопланетянин человек

Внимание! Время в таблицах - всемирное. Для получения местного времени необходимо прибавить поправку, которая в Gilbues равна -3 ч.

Смотрите также архив погоды в соседних городах и на ближайших метеорологических станциях:

Погода в Alto Parnaiba (Бразилия) (107 км)
Погода в Bom Jesus do Piaui (Бразилия) (142 км)
Погода в Santa Rita de Cassia (Бразилия) (156 км)
Погода в Buritirama (Бразилия) (209 км)
Погода в Alvorada do Gurgueia (Бразилия) (227 км)
Погода в Caracol (Бразилия) (232 км)
Погода в Dianopolis (Бразилия) (253 км)
Погода в Barreiras (Бразилия) (256 км)
Погода в Barreiras (Бразилия) (256 км)
Погода в Luis Eduardo Magalhaes (Бразилия) (259 км)

Пояснения к столбцам:

Ветер - указаны скорость ветра в м/с - средняя за 10 мин, порывы в срок и между сроками (в фигурных скобках) и направление, откуда дует ветер: С - северный, СВ - северо-восточный, В - восточный, ЮВ - юго-восточный, Ю - южный, ЮЗ - юго-западный, З - западный, СЗ - северо-западный.
Видимость - горизонтальная дальность видимости в метрах или километрах. При видимости от 1 до 10 км при отсутствии осадков обычно наблюдается дымка, при ухудшении видимости до 1 км и менее - туман. В сухую погоду видимость может ухудшаться дымом, пылью или мглою.
Явления - указаны атмосферные явления, наблюдавшиеся в срок или в последний час перед сроком; фигурными скобками обозначены явления, наблюдавшиеся между сроками (за 1-3 часа до срока); квадратными скобками обозначены град или гололедные отложения с указанием их диаметра в мм.
Облачность - указаны через наклонную черту общая и нижняя облачность в баллах и высота нижней границы облаков в метрах; квадратными скобками обозначены формы облаков: Ci - перистые, Cs - перисто-слоистые, Cc - перисто-кучевые, Ac - высококучевые, As - высокослоистые, Sc - слоисто-кучевые, Ns - слоисто-дождевые, Cu - кучевые, Cb - кучево-дождевые. Подробнее классификацию облаков см. в Атласе облаков (PDF).
T - Температура воздуха - температура, измеренная на высоте 2 м над землей.
Td - Температура точки росы - температура, при понижении до которой содержащийся в воздухе водяной пар достигнет насыщения.
f - Относительная влажность воздуха - влажноcть воздуха, измеренная на высоте 2 м над землей.
Te - Эффективная температура - температура, которую ощущает одетый по сезону человек в тени. Характеристика душности погоды. При расчете учитывается влияние влажности воздуха и скорости ветра на теплоощущения человека.
Tes - Эффективная температура на солнце - температура, которую ощущает человек, с поправкой на солнечный нагрев. Характеристика знойности погоды. Зависит от высоты солнца над горизонтом, облачности и скорости ветра. Ночью, в пасмурную погоду, а также при ветре 12 м/с и более поправка равна нулю.
P - Атмосферное давление - приведенное к уровню моря атмосферное давление.
Po - Атмосферное давление - измеренное на уровне метеостанции атмосферное давление.
Tmin - Минимальная температура - минимум температуры воздуха на высоте 2 м над землей.
Tmax - Максимальная температура - максимум температуры воздуха на высоте 2 м над землей.
R - Количество осадков - Количество выпавших осадков за период времени, мм. При наведении курсора мыши на число - период времени, за который выпало указанное количество осадков.
R24 - Количество осадков - Количество выпавших осадков за 24 часа, мм.
S - Снежный покров - Высота снежного покрова, см. При наведении курсора мыши на число - состояние снежного покрова и степень покрытия местности в баллах.